Home   Weather   Wuppertal   Past weeks

Flag for Germany Past Weather in Wuppertal, North Rhine-Westphalia, Germany — Yesterday and Last 2 Weeks

Now
66 °F

Scattered clouds.


Feels Like: 66 °F
Forecast: 51 / 67 °F
Wind: 13 mph from Southwest

Location: Duesseldorf

Current Time: Aug 20, 2017 at 3:56:47 pm

Latest Report: Aug 20, 2017 at 2:50 pm


Visibility: N/A

Pressure: 30.21 "Hg

Humidity: 56%

Dew Point: 50 °F

Location of WuppertalLocation

Past Weather in Wuppertal — Graph

°F

Wuppertal Temperature Yesterday

Maximum temperature yesterday: 68 °F (at 3:50 pm)
Minimum temperature yesterday: 54 °F (at 2:50 am)
Average temperature yesterday: 60 °F

High & Low Weather Summary for the Past Weeks

 TemperatureHumidityPressure
High79 °F (Aug 14, 4:50 pm)100% (Aug 6, 4:20 am)30.24 "Hg (Aug 6, 4:20 am)
Low52 °F (Aug 6, 4:20 am)39% (Aug 7, 2:50 pm)29.74 "Hg (Aug 8, 1:50 pm)
Average64 °F79%30.03 "Hg
* Reported Aug 5 2:20 pm — Aug 20 2:20 pm, Wuppertal. Weather by CustomWeather, © 2017

Note: Actual official high and low records may vary slightly from our data, if they occured in-between our weather recording intervals... More about our weather records

Advertising

Wuppertal Weather History for the Previous 24 Hours

Scroll right to see more
 ConditionsComfort  
Time TempWeatherWind HumidityBarometerVisibility
2:20 pm
Sun, Aug 20
64 °FScattered clouds.15 mph64%30.21 "HgN/A
1:50 pm66 °FScattered clouds.13 mph60%30.21 "HgN/A
1:20 pm66 °FPassing clouds.15 mph60%30.21 "HgN/A
12:50 pm66 °FPassing clouds.16 mph64%30.21 "HgN/A
12:20 pm64 °FScattered clouds.16 mph68%30.21 "HgN/A
11:50 am63 °FBroken clouds.14 mph77%30.21 "HgN/A
11:20 am63 °FSunny.12 mph77%30.21 "Hg10 mi
10:50 am61 °FPartly sunny.12 mph77%30.21 "HgN/A
10:20 am61 °FPartly sunny.13 mph77%30.21 "HgN/A
9:50 am59 °FPartly sunny.12 mph82%30.18 "HgN/A
9:20 am57 °FBroken clouds.10 mph88%30.18 "HgN/A
8:50 am57 °FScattered clouds.9 mph88%30.18 "HgN/A
8:20 am55 °FSunny.9 mph88%30.18 "Hg10 mi
7:50 am55 °FScattered clouds.12 mph88%30.15 "HgN/A
7:20 am54 °FSunny.12 mph94%30.15 "Hg10 mi
6:50 am54 °FScattered clouds.9 mph94%30.15 "HgN/A
6:20 am54 °FClear.8 mph94%30.15 "Hg10 mi
5:50 am55 °FClear.9 mph88%30.15 "Hg10 mi
5:20 am55 °FClear.9 mph88%30.12 "Hg10 mi
4:50 am54 °FClear.8 mph88%30.12 "Hg10 mi
4:20 am55 °FPassing clouds.8 mph88%30.12 "HgN/A
3:50 am57 °FPassing clouds.8 mph82%30.12 "HgN/A
3:20 am57 °FClear.9 mph82%30.12 "Hg10 mi
2:50 am57 °FCool.9 mph82%30.12 "HgN/A
2:20 am57 °FClear.10 mph82%30.12 "Hg10 mi
1:50 am57 °FClear.10 mph82%30.12 "Hg10 mi
1:20 am57 °FClear.8 mph88%30.12 "Hg10 mi
12:50 am55 °FClear.9 mph88%30.12 "Hg10 mi
12:20 am57 °FPassing clouds.9 mph88%30.12 "HgN/A
11:50 pm
Sat, Aug 19
59 °FPassing clouds.8 mph82%30.12 "HgN/A
11:20 pm59 °FPassing clouds.8 mph82%30.12 "HgN/A
10:50 pm59 °FClear.8 mph82%30.12 "Hg10 mi
10:20 pm57 °FClear.8 mph88%30.12 "Hg10 mi
9:50 pm57 °FClear.9 mph88%30.09 "Hg10 mi
9:20 pm57 °FClear.10 mph88%30.09 "Hg10 mi
8:50 pm61 °FClear.9 mph77%30.09 "Hg10 mi
8:20 pm61 °FPartly sunny.9 mph77%30.09 "HgN/A
7:50 pm61 °FPartly sunny.13 mph77%30.07 "HgN/A
7:20 pm63 °FBroken clouds.12 mph73%30.07 "HgN/A
6:50 pm63 °FBroken clouds.7 mph73%30.07 "HgN/A
6:20 pm63 °FPartly sunny.9 mph73%30.07 "HgN/A
5:50 pm63 °FPartly sunny.9 mph73%30.07 "HgN/A
5:20 pm63 °FScattered showers. Partly sunny.13 mph77%30.07 "HgN/A
4:50 pm63 °FSprinkles. Partly sunny.21 mph73%30.07 "HgN/A
4:20 pm66 °FScattered showers. Scattered clouds.15 mph60%30.04 "HgN/A
3:50 pm68 °FScattered clouds.13 mph56%30.04 "HgN/A
3:20 pm66 °FScattered clouds.18 mph60%30.04 "HgN/A
Weather by CustomWeather, © 2017

See weather overviewHow to use our weather pages